Weather History for Fort Leonard Wood, MO

Change the Weather History Date:

Friday, May 3, 2013

  Actual Average Record
Temperature  
Mean Temperature 34 °F -  
Max Temperature 38 °F 71 °F 82 °F (2001)
Min Temperature 32 °F 53 °F 32 °F (2013)
Degree Days  
Heating Degree Days 30    
Moisture  
Dew Point 35 °F    
Average Humidity 100    
Maximum Humidity 100    
Minimum Humidity 100    
Precipitation  
Precipitation 0.47 in - - ()
Sea Level Pressure  
Sea Level Pressure 29.98 in    
Wind  
Wind Speed 10 mph (WNW)    
Max Wind Speed 13 mph    
Max Gust Speed -    
Visibility 9 miles    
Events Rain , Snow    
Averages and records for this station are not official NWS values.
T = Trace of Precipitation, MM = Missing Value Source: NWS Daily Summary

Daily Weather History Graph

Daily Weather History Graph

Search for Another Location

Airport:

Trip Planner

Search our weather history database for the weather conditions in past years. The results will help you decide how hot, cold, wet, or windy it might be!

Date:

Astronomy

May. 03, 2013 Rise Set
Actual Time 6:10 AM CDT 8:01 PM CDT
Civil Twilight 5:41 AM CDT 8:29 PM CDT
Nautical Twilight 5:07 AM CDT 9:04 PM CDT
Astronomical Twilight 4:30 AM CDT 9:41 PM CDT
Moon 2:28 AM CDT (5/3) 2:02 PM CDT (5/3)
Length of Visible Light 14h 47m
Length of Day
13h 50m
Last Quarter, 37% of the Moon is Illuminated
May 3
Last Quarter
May 9
New
May 17
First Quarter
May 24
Full
May 31
Last Quarter

Hourly Weather History & Observations

Time (CDT) Temp. Windchill Dew Point Humidity Pressure Visibility Wind Dir Wind Speed Gust Speed Precip Events Conditions
12:28 AM 37.4 °F 30.3 °F 37.4 °F 100% 30.14 in 9.0 mi NW 10.4 mph - N/A Rain Light Rain
12:53 AM 37.4 °F 29.8 °F 37.4 °F 100% 30.14 in 7.0 mi NW 11.5 mph - N/A Rain Rain
12:58 AM 36.5 °F 28.2 °F 36.5 °F 100% 30.16 in 8.0 mi NW 12.7 mph - 0.04 in Rain Light Rain
1:48 AM 35.6 °F 28.0 °F 35.6 °F 100% 30.11 in 6.0 mi WNW 10.4 mph - N/A Rain Rain
1:58 AM 35.8 °F 28.8 °F 35.8 °F 100% 30.15 in 9.0 mi NW 9.2 mph - 0.06 in Rain Light Rain
2:03 AM 35.6 °F 28.0 °F 35.6 °F 100% 30.11 in 10.0 mi NW 10.4 mph - N/A Rain Light Rain
2:53 AM 35.6 °F 28.0 °F 35.6 °F 100% 30.09 in 8.0 mi NNW 10.4 mph - N/A Rain Light Rain
2:58 AM 35.6 °F 28.6 °F 35.6 °F 100% 30.12 in 8.0 mi NW 9.2 mph - 0.03 in Rain Light Rain
3:03 AM 35.6 °F 28.0 °F 35.6 °F 100% 30.09 in 6.0 mi NNW 10.4 mph - N/A Rain Light Rain
3:33 AM 35.6 °F 29.2 °F 35.6 °F 100% 30.08 in 10.0 mi NW 8.1 mph - N/A Rain Light Rain
3:38 AM 35.6 °F 28.0 °F 35.6 °F 100% 30.08 in 9.0 mi NW 10.4 mph - N/A Rain Light Rain
3:48 AM 35.6 °F 28.0 °F 35.6 °F 100% 30.08 in 9.0 mi NW 10.4 mph - N/A Rain Light Rain
3:58 AM 35.1 °F 26.9 °F 35.1 °F 100% 30.09 in 7.0 mi NW 11.5 mph - 0.04 in Rain Rain
4:08 AM 35.6 °F 28.0 °F 35.6 °F 100% 30.06 in 10.0 mi NW 10.4 mph - N/A Rain Light Rain
4:18 AM 35.6 °F 29.2 °F 35.6 °F 100% 30.06 in 10.0 mi NW 8.1 mph - N/A Rain Light Rain
4:58 AM 34.5 °F 27.3 °F 34.5 °F 100% 30.08 in 8.0 mi NW 9.2 mph - 0.07 in Rain Light Rain
5:28 AM 33.8 °F 26.4 °F 33.8 °F 100% 30.05 in 10.0 mi NW 9.2 mph - N/A Rain Light Rain
5:58 AM 34.3 °F 28.4 °F 34.3 °F 100% 30.08 in 7.0 mi WNW 6.9 mph - 0.02 in Rain Light Rain
6:53 AM 33.8 °F 25.8 °F 33.8 °F 100% 30.03 in 8.0 mi NW 10.4 mph - N/A Rain Light Rain
6:58 AM 34.3 °F 25.9 °F 34.3 °F 100% 30.05 in 8.0 mi NW 11.5 mph - 0.08 in Rain Light Rain
7:52 AM 35.6 °F 28.0 °F 35.6 °F 100% 30.01 in 10.0 mi NNW 10.4 mph - N/A   Overcast
7:57 AM 35.6 °F 27.5 °F 35.6 °F 100% 30.01 in 10.0 mi NNW 11.5 mph - N/A   Light Drizzle
7:58 AM 35.6 °F 27.5 °F 35.6 °F 100% 30.05 in 10.0 mi NNW 11.5 mph - 0.02 in   Light Drizzle
8:58 AM 35.2 °F 27.6 °F 35.2 °F 100% 30.04 in 10.0 mi NNW 10.4 mph - 0.01 in   Light Drizzle
9:01 AM 35.6 °F 27.5 °F 35.6 °F 100% 30.01 in 10.0 mi NNW 11.5 mph - N/A   Overcast
9:11 AM 35.6 °F 29.2 °F 35.6 °F 100% 30.00 in 10.0 mi NNW 8.1 mph - N/A   Light Drizzle
9:31 AM 35.6 °F 29.9 °F 35.6 °F 100% 30.00 in 6.0 mi NW 6.9 mph - N/A Rain Light Rain
9:58 AM 35.2 °F 28.1 °F 35.2 °F 100% 30.02 in 6.0 mi NW 9.2 mph - 0.01 in Rain Light Rain
10:38 AM 35.6 °F 27.5 °F 35.6 °F 100% 29.98 in 10.0 mi NW 11.5 mph - N/A Rain Light Rain
10:58 AM 36.3 °F 28.9 °F 36.3 °F 100% 30.00 in 10.0 mi NW 10.4 mph - 0.03 in   Light Drizzle
11:23 AM 37.4 °F 30.3 °F 37.4 °F 100% 29.98 in 10.0 mi NW 10.4 mph - N/A   Overcast
11:28 AM 37.4 °F 30.8 °F 37.4 °F 100% 29.97 in 10.0 mi NW 9.2 mph - N/A   Overcast
11:55 AM 37.4 °F 32.1 °F 37.4 °F 100% 29.96 in 10.0 mi NW 6.9 mph - N/A   Overcast
11:58 AM 36.9 °F 29.6 °F 36.9 °F 100% 30.00 in 9.0 mi NW 10.4 mph - 0.00 in   Overcast
12:58 PM 37.4 °F 31.4 °F 37.4 °F 100% 29.99 in 6.0 mi NW 8.1 mph - 0.01 in   Overcast
1:00 PM 37.4 °F 31.4 °F 37.4 °F 100% 29.96 in 7.0 mi NW 8.1 mph - N/A   Light Drizzle
1:58 PM 37.8 °F 30.7 °F 37.8 °F 100% 29.96 in 7.0 mi WNW 10.4 mph - 0.00 in   Light Drizzle
2:55 PM 37.0 °F 29.3 °F 37.0 °F 100% 29.98 in 7.0 mi NW 11.5 mph - 0.01 in Rain Light Rain
2:58 PM 37.0 °F 29.8 °F 37.0 °F 100% 29.98 in 8.0 mi NW 10.4 mph - 0.01 in   Light Drizzle
3:58 PM 37.0 °F 29.8 °F 37.0 °F 100% 29.94 in 6.0 mi WNW 10.4 mph - 0.00 in   Light Drizzle
4:19 PM 37.4 °F 30.3 °F 37.4 °F 100% 29.91 in 10.0 mi WNW 10.4 mph - N/A   Overcast
4:24 PM 37.4 °F 29.3 °F 37.4 °F 100% 29.91 in 9.0 mi WNW 12.7 mph - N/A   Light Drizzle
4:34 PM 35.6 °F 28.0 °F 35.6 °F 100% 29.89 in 9.0 mi WNW 10.4 mph - N/A   Overcast
4:39 PM 35.6 °F 28.0 °F 35.6 °F 100% 29.90 in 10.0 mi WNW 10.4 mph - N/A   Overcast
4:40 PM 35.6 °F 27.5 °F 35.6 °F 100% 29.90 in 9.0 mi WNW 11.5 mph - N/A   Light Drizzle
4:45 PM 35.6 °F 28.6 °F 35.6 °F 100% 29.90 in 9.0 mi WNW 9.2 mph - N/A   Light Drizzle
4:50 PM 35.6 °F 28.6 °F 35.6 °F 100% 29.90 in 9.0 mi WNW 9.2 mph - N/A   Overcast
4:58 PM 36.5 °F 29.2 °F 36.5 °F 100% 29.94 in 10.0 mi WNW 10.4 mph - 0.00 in   Overcast
5:20 PM 35.6 °F 29.2 °F 35.6 °F 100% 29.90 in 10.0 mi WNW 8.1 mph - N/A   Light Drizzle
5:58 PM 36.1 °F 29.3 °F 36.1 °F 100% 29.94 in 7.0 mi WNW 9.2 mph - 0.01 in   Light Drizzle
6:58 PM 35.6 °F 29.9 °F 35.6 °F 100% 29.94 in 6.0 mi WNW 6.9 mph - 0.01 in   Drizzle
7:33 PM 35.6 °F 29.2 °F 35.6 °F 100% 29.89 in 8.0 mi WNW 8.1 mph - N/A Rain Light Rain
7:53 PM 35.6 °F 28.6 °F 35.6 °F 100% 29.90 in 10.0 mi West 9.2 mph - N/A   Light Drizzle
7:58 PM 34.9 °F 27.7 °F 34.9 °F 100% 29.94 in 10.0 mi WNW 9.2 mph - 0.01 in   Light Drizzle
8:00 PM 35.6 °F 29.2 °F 35.6 °F 100% 29.90 in 10.0 mi WNW 8.1 mph - N/A   Overcast
8:14 PM 35.6 °F 28.6 °F 35.6 °F 100% 29.90 in 10.0 mi West 9.2 mph - N/A   Light Drizzle
8:58 PM 34.2 °F 27.5 °F 34.2 °F 100% 29.94 in 10.0 mi WNW 8.1 mph - 0.00 in   Light Drizzle
9:00 PM 33.8 °F 27.7 °F 33.8 °F 100% 29.90 in 10.0 mi WNW 6.9 mph - N/A   Overcast
9:02 PM 33.8 °F 28.6 °F 33.8 °F 100% 29.90 in 10.0 mi West 5.8 mph - N/A   Light Drizzle
9:22 PM 33.8 °F 27.0 °F 33.8 °F 100% 29.90 in 10.0 mi West 8.1 mph - N/A   Light Drizzle
9:32 PM 33.8 °F 27.7 °F 33.8 °F 100% 29.90 in 10.0 mi West 6.9 mph - N/A   Light Drizzle
9:39 PM 33.8 °F 27.7 °F 33.8 °F 100% 29.90 in 10.0 mi West 6.9 mph - N/A   Overcast
9:47 PM 33.8 °F 29.6 °F 33.8 °F 100% 29.90 in 10.0 mi WSW 4.6 mph - N/A Rain Light Rain
9:57 PM 33.8 °F 29.6 °F 33.8 °F 100% 29.90 in 10.0 mi Variable 4.6 mph - N/A Rain Light Rain
9:58 PM 34.0 °F 31.0 °F 34.0 °F 100% 29.94 in 10.0 mi Variable 3.5 mph - 0.01 in Rain Light Rain
10:24 PM 32.0 °F 26.4 °F 32.0 °F 100% 29.89 in 10.0 mi West 5.8 mph - N/A Rain , Snow Light Rain
10:54 PM 32.0 °F 25.6 °F 32.0 °F 100% 29.88 in 10.0 mi West 6.9 mph - N/A   Overcast
10:58 PM 33.4 °F 28.1 °F 33.4 °F 100% 29.92 in 10.0 mi West 5.8 mph - 0.00 in   Overcast
11:48 PM 32.0 °F 27.5 °F 32.0 °F 100% 29.87 in 10.0 mi WSW 4.6 mph - N/A   Overcast
11:58 PM 33.6 °F 29.4 °F 33.6 °F 100% 29.91 in 10.0 mi WSW 4.6 mph - N/A   Overcast